Langdon, ND

8:00 AM CDT on August 23, 2017 (GMT -0500)
Langdon

Weather History for KD55 - December, 2012

Change the Weather History Date:

Wednesday, December 5, 2012

  Actual Average (KDVL) Record (KDVL)
Temperature  
Mean Temperature 21 °F -  
Max Temperature 32 °F 25 °F 49 °F (1965)
Min Temperature 10 °F 10 °F -20 °F (1950)
Degree Days  
Heating Degree Days 44    
Moisture  
Dew Point 18 °F    
Average Humidity 85    
Maximum Humidity 100    
Minimum Humidity 74    
Precipitation  
Precipitation 0.00 in - - ()
Sea Level Pressure  
Sea Level Pressure 29.80 in    
Wind  
Wind Speed 19 mph (South)    
Max Wind Speed 30 mph    
Max Gust Speed 38 mph    
Visibility 10 miles    
Events      
Averages and records for this station are not official NWS values.
T = Trace of Precipitation, MM = Missing Value Source: NWS Daily Summary

Daily Weather History Graph

Daily Weather History Graph

Search for Another Location

Airport or City:

Trip Planner

Search our weather history database for the weather conditions in past years. The results will help you decide how hot, cold, wet, or windy it might be!

Date:

Astronomy

Dec. 05, 2012 Rise Set
Actual Time 8:10 AM CST 4:37 PM CST
Civil Twilight 7:34 AM CST 5:14 PM CST
Nautical Twilight 6:54 AM CST 5:54 PM CST
Astronomical Twilight 6:16 AM CST 6:32 PM CST
Moon 11:55 PM CST (12/5) 12:11 PM CST (12/5)
Length of Visible Light 9h 40m
Length of Day
8h 27m
Waning Gibbous, 59% of the Moon is Illuminated
Dec 5
Waning Gibbous
Dec 6
Last Quarter
Dec 13
New
Dec 19
First Quarter
Dec 28
Full

Hourly Weather History & Observations

Time (CST) Temp. Windchill Dew Point Humidity Pressure Visibility Wind Dir Wind Speed Gust Speed Precip Events Conditions
12:15 AM 10.4 °F -4.8 °F 8.6 °F 92% 30.22 in 10.0 mi SE 12.7 mph - N/A   Mostly Cloudy
12:35 AM 10.4 °F -6.6 °F 8.6 °F 92% 30.22 in 10.0 mi SE 16.1 mph - N/A   Overcast
12:55 AM 10.4 °F -6.6 °F 8.6 °F 92% 30.21 in 10.0 mi SSE 16.1 mph - N/A   Mostly Cloudy
1:15 AM 10.4 °F -6.6 °F 8.6 °F 92% 30.19 in 10.0 mi SE 16.1 mph - N/A   Overcast
1:55 AM 10.4 °F -7.2 °F 10.4 °F 100% 30.17 in 10.0 mi SE 17.3 mph - N/A   Overcast
2:15 AM 12.2 °F -4.8 °F 10.4 °F 92% 30.16 in 10.0 mi SSE 17.3 mph - N/A   Overcast
2:35 AM 12.2 °F -4.3 °F 10.4 °F 92% 30.16 in 10.0 mi SSE 16.1 mph - N/A   Overcast
2:55 AM 14.0 °F -3.0 °F 10.4 °F 86% 30.15 in 10.0 mi SSE 18.4 mph - N/A   Overcast
3:15 AM 14.0 °F -3.4 °F 10.4 °F 86% 30.15 in 10.0 mi SSE 19.6 mph - N/A   Overcast
3:35 AM 14.0 °F -2.0 °F 10.4 °F 86% 30.13 in 10.0 mi SSE 16.1 mph - N/A   Overcast
3:55 AM 14.0 °F -3.0 °F 10.4 °F 86% 30.12 in 10.0 mi SSE 18.4 mph - N/A   Overcast
4:15 AM 14.0 °F -3.4 °F 10.4 °F 86% 30.10 in 10.0 mi SSE 19.6 mph 25.3 mph N/A   Mostly Cloudy
4:35 AM 14.0 °F -4.7 °F 10.4 °F 86% 30.07 in 10.0 mi SSE 23.0 mph 27.6 mph N/A   Partly Cloudy
4:55 AM 14.0 °F -4.3 °F 10.4 °F 86% 30.05 in 10.0 mi SSE 21.9 mph 29.9 mph N/A   Clear
5:15 AM 14.0 °F -3.0 °F 10.4 °F 86% 30.04 in 10.0 mi SSE 18.4 mph 26.5 mph N/A   Clear
5:35 AM 14.0 °F -3.0 °F 10.4 °F 86% 30.03 in 10.0 mi SSE 18.4 mph 26.5 mph N/A   Clear
5:55 AM 15.8 °F 0.9 °F 10.4 °F 79% 30.04 in 10.0 mi SSE 15.0 mph - N/A   Clear
6:15 AM 15.8 °F 0.3 °F 10.4 °F 79% 30.04 in 10.0 mi SSE 16.1 mph - N/A   Clear
6:35 AM 15.8 °F 0.3 °F 10.4 °F 79% 30.02 in 10.0 mi SSE 16.1 mph - N/A   Clear
6:55 AM 15.8 °F -0.6 °F 10.4 °F 79% 30.01 in 10.0 mi SSE 18.4 mph 23.0 mph N/A   Clear
8:35 AM 15.8 °F -1.1 °F 12.2 °F 86% 29.95 in 10.0 mi SSE 19.6 mph - N/A   Clear
8:55 AM 15.8 °F -1.1 °F 14.0 °F 93% 29.93 in 10.0 mi SSE 19.6 mph 25.3 mph N/A   Clear
9:15 AM 17.6 °F 0.1 °F 14.0 °F 86% 29.92 in 10.0 mi SSE 23.0 mph 28.8 mph N/A   Clear
9:35 AM 17.6 °F 0.5 °F 14.0 °F 86% 29.91 in 10.0 mi South 21.9 mph 28.8 mph N/A   Clear
9:55 AM 17.6 °F 0.1 °F 15.8 °F 93% 29.89 in 10.0 mi South 23.0 mph 27.6 mph N/A   Clear
10:15 AM 19.4 °F 2.5 °F 15.8 °F 86% 29.88 in 10.0 mi South 23.0 mph 31.1 mph N/A   Clear
10:35 AM 21.2 °F 4.2 °F 17.6 °F 86% 29.87 in 10.0 mi South 25.3 mph 31.1 mph N/A   Clear
10:55 AM 21.2 °F 4.2 °F 17.6 °F 86% 29.86 in 10.0 mi South 25.3 mph 33.4 mph N/A   Partly Cloudy
11:15 AM 23.0 °F 6.6 °F 17.6 °F 80% 29.83 in 10.0 mi South 25.3 mph 32.2 mph N/A   Mostly Cloudy
11:35 AM 23.0 °F 6.9 °F 17.6 °F 80% 29.81 in 10.0 mi South 24.2 mph 29.9 mph N/A   Mostly Cloudy
11:55 AM 23.0 °F 7.2 °F 19.4 °F 86% 29.80 in 10.0 mi South 23.0 mph 28.8 mph N/A   Mostly Cloudy
12:15 PM 24.8 °F 10.0 °F 19.4 °F 80% 29.78 in 10.0 mi South 21.9 mph 28.8 mph N/A   Mostly Cloudy
12:35 PM 24.8 °F 8.4 °F 19.4 °F 80% 29.76 in 10.0 mi South 27.6 mph 33.4 mph N/A   Overcast
12:55 PM 24.8 °F 10.3 °F 19.4 °F 80% 29.76 in 10.0 mi South 20.7 mph 28.8 mph N/A   Mostly Cloudy
1:15 PM 26.6 °F 11.7 °F 19.4 °F 74% 29.74 in 10.0 mi South 24.2 mph 31.1 mph N/A   Partly Cloudy
1:35 PM 26.6 °F 11.7 °F 19.4 °F 74% 29.72 in 10.0 mi South 24.2 mph 29.9 mph N/A   Clear
1:55 PM 26.6 °F 12.4 °F 19.4 °F 74% 29.71 in 10.0 mi South 21.9 mph 29.9 mph N/A   Clear
2:15 PM 26.6 °F 11.1 °F 19.4 °F 74% 29.69 in 10.0 mi South 26.5 mph 29.9 mph N/A   Clear
2:35 PM 26.6 °F 12.4 °F 21.2 °F 80% 29.68 in 10.0 mi South 21.9 mph 28.8 mph N/A   Clear
2:55 PM 26.6 °F 11.4 °F 21.2 °F 80% 29.66 in 10.0 mi South 25.3 mph 29.9 mph N/A   Clear
3:15 PM 26.6 °F 12.0 °F 21.2 °F 80% 29.66 in 10.0 mi South 23.0 mph 31.1 mph N/A   Clear
3:35 PM 26.6 °F 13.1 °F 21.2 °F 80% 29.66 in 10.0 mi South 19.6 mph 26.5 mph N/A   Clear
3:55 PM 24.8 °F 10.7 °F 19.4 °F 80% 29.64 in 10.0 mi South 19.6 mph 25.3 mph N/A   Clear
4:15 PM 24.8 °F 10.3 °F 21.2 °F 86% 29.63 in 10.0 mi South 20.7 mph - N/A   Scattered Clouds
4:35 PM 26.6 °F 12.7 °F 21.2 °F 80% 29.61 in 10.0 mi South 20.7 mph - N/A   Partly Cloudy
4:55 PM 26.6 °F 12.0 °F 23.0 °F 86% 29.61 in 10.0 mi South 23.0 mph 28.8 mph N/A   Partly Cloudy
5:15 PM 26.6 °F 12.4 °F 23.0 °F 86% 29.59 in 10.0 mi South 21.9 mph 29.9 mph N/A   Clear
5:35 PM 26.6 °F 12.0 °F 23.0 °F 86% 29.59 in 10.0 mi South 23.0 mph 29.9 mph N/A   Mostly Cloudy
5:55 PM 26.6 °F 12.0 °F 23.0 °F 86% 29.58 in 10.0 mi South 23.0 mph 28.8 mph N/A   Mostly Cloudy
6:15 PM 28.4 °F 13.8 °F 23.0 °F 80% 29.56 in 10.0 mi South 25.3 mph 34.5 mph N/A   Mostly Cloudy
6:35 PM 28.4 °F 14.1 °F 23.0 °F 80% 29.57 in 10.0 mi SSW 24.2 mph 33.4 mph N/A   Mostly Cloudy
6:55 PM 28.4 °F 13.8 °F 23.0 °F 80% 29.56 in 10.0 mi SSW 25.3 mph 31.1 mph N/A   Overcast
7:15 PM 28.4 °F 13.8 °F 24.8 °F 86% 29.56 in 10.0 mi SSW 25.3 mph 32.2 mph N/A   Overcast
7:35 PM 28.4 °F 14.4 °F 24.8 °F 86% 29.56 in 10.0 mi SSW 23.0 mph 31.1 mph N/A   Overcast
7:55 PM 28.4 °F 14.4 °F 24.8 °F 86% 29.56 in 10.0 mi SSW 23.0 mph 28.8 mph N/A   Overcast
8:15 PM 28.4 °F 14.4 °F 24.8 °F 86% 29.55 in 10.0 mi SSW 23.0 mph 28.8 mph N/A   Scattered Clouds
8:35 PM 28.4 °F 14.7 °F 24.8 °F 86% 29.55 in 10.0 mi SSW 21.9 mph - N/A   Clear
8:55 PM 28.4 °F 15.1 °F 24.8 °F 86% 29.55 in 10.0 mi SSW 20.7 mph 25.3 mph N/A   Scattered Clouds
9:15 PM 28.4 °F 15.4 °F 24.8 °F 86% 29.54 in 10.0 mi SSW 19.6 mph - N/A   Scattered Clouds
9:35 PM 28.4 °F 15.8 °F 24.8 °F 86% 29.53 in 10.0 mi SSW 18.4 mph - N/A   Scattered Clouds
9:55 PM 28.4 °F 15.8 °F 26.6 °F 93% 29.53 in 10.0 mi SSW 18.4 mph - N/A   Mostly Cloudy
10:15 PM 28.4 °F 15.8 °F 26.6 °F 93% 29.53 in 10.0 mi SW 18.4 mph - N/A   Scattered Clouds
10:35 PM 30.2 °F 17.8 °F 26.6 °F 86% 29.53 in 10.0 mi SW 19.6 mph - N/A   Clear
10:55 PM 30.2 °F 17.8 °F 26.6 °F 86% 29.52 in 10.0 mi SW 19.6 mph - N/A   Scattered Clouds
11:15 PM 32.0 °F 20.1 °F 28.4 °F 87% 29.52 in 10.0 mi WSW 19.6 mph 26.5 mph N/A   Partly Cloudy
11:35 PM 32.0 °F 18.9 °F 28.4 °F 87% 29.53 in 10.0 mi West 24.2 mph 29.9 mph N/A   Clear
11:55 PM 32.0 °F 17.6 °F 30.2 °F 93% 29.54 in 10.0 mi West 29.9 mph 38.0 mph N/A   Clear